User: anonymous   Login
Location: Bittelbronn
(48.4454°N, 8.5870°E)
Time: 06:26:41
(UTC+00:00)
Language:

GP-B - Orbit

View from above orbital plane
View from above orbital plane
View from above satellite
View from above satellite

Ground track
Ground track

The orbit data is extracted from the following two-line orbital elements,

1 28230U 04014A   24201.90967268  .00001659  00000-0  21256-3 0  9990
2 28230  89.8260  64.4159 0001911  89.4148 270.7295 14.80939237549056
Epoch (UTC): 19 July 2024 21:49:55
Eccentricity: 0.0001911
inclination: 89.8260°
perigee height: 625 km
apogee height: 628 km
right ascension of ascending node: 64.4159°
argument of perigee: 89.4148°
revolutions per day: 14.80939237
mean anomaly at epoch: 270.7295°
orbit number at epoch: 54905

The dashed part of the orbit path shows where the satellite is in the earth's shadow,  

DLR